Fort Stockton, TX

12:37 AM CDT on August 30, 2016 (GMT -0500)
Fort Stockton-Pecos County

Weather History for KFST - February, 2011

Change the Weather History Date:

Sunday, February 20, 2011

  Actual Average Record
Temperature  
Mean Temperature 68 °F -  
Max Temperature 87 °F 64 °F 87 °F (2011)
Min Temperature 50 °F 40 °F 39 °F (2006)
Cooling Degree Days 4    
Growing Degree Days 18 (Base 50)    
Moisture  
Dew Point 31 °F    
Average Humidity 41    
Maximum Humidity 93    
Minimum Humidity 5    
Precipitation  
Precipitation 0.00 in - - ()
Sea Level Pressure  
Sea Level Pressure 29.67 in    
Wind  
Wind Speed 11 mph (SSW)    
Max Wind Speed 17 mph    
Max Gust Speed 25 mph    
Visibility 9 miles    
Events      
Averages and records for this station are not official NWS values.
T = Trace of Precipitation, MM = Missing Value Source: NWS Daily Summary

Daily Weather History Graph

Daily Weather History Graph

Search for Another Location

Airport or City:

Trip Planner

Search our weather history database for the weather conditions in past years. The results will help you decide how hot, cold, wet, or windy it might be!

Date:

Astronomy

Feb. 20, 2011 Rise Set
Actual Time 7:27 AM CST 6:43 PM CST
Civil Twilight 7:03 AM CST 7:07 PM CST
Nautical Twilight 6:35 AM CST 7:35 PM CST
Astronomical Twilight 6:07 AM CST 8:04 PM CST
Moon 9:47 PM CST (2/20) 8:40 AM CST (2/20)
Length of Visible Light 12h 04m
Length of Day
11h 15m
Waning Gibbous, 92% of the Moon is Illuminated
Feb 20
Waning Gibbous
Feb 24
Last Quarter
Mar 4
New
Mar 12
First Quarter
Mar 19
Full

Hourly Weather History & Observations

Time (CST) Temp. Dew Point Humidity Pressure Visibility Wind Dir Wind Speed Gust Speed Precip Events Conditions
12:53 AM 62.1 °F 55.0 °F 78% 29.73 in 10.0 mi South 17.3 mph - N/A   Clear
1:53 AM 60.1 °F 54.0 °F 80% 29.73 in 10.0 mi SSW 10.4 mph - N/A   Clear
2:53 AM 57.9 °F 53.1 °F 84% 29.72 in 9.0 mi South 9.2 mph - N/A   Clear
3:53 AM 55.9 °F 51.1 °F 84% 29.71 in 9.0 mi South 5.8 mph - N/A   Clear
4:53 AM 53.1 °F 50.0 °F 89% 29.72 in 8.0 mi ESE 3.5 mph - N/A   Clear
5:53 AM 54.0 °F 50.0 °F 86% 29.72 in 8.0 mi South 9.2 mph - N/A   Clear
6:53 AM 51.1 °F 48.9 °F 92% 29.74 in 6.0 mi South 9.2 mph - N/A   Clear
7:53 AM 50.0 °F 48.0 °F 93% 29.75 in 5.0 mi South 8.1 mph - N/A   Clear
8:53 AM 60.1 °F 46.0 °F 60% 29.75 in 10.0 mi South 11.5 mph - N/A   Clear
9:53 AM 72.0 °F 37.0 °F 28% 29.74 in 10.0 mi SSW 12.7 mph - N/A   Clear
10:53 AM 77.0 °F 25.0 °F 15% 29.73 in 10.0 mi SSW 12.7 mph - N/A   Clear
11:53 AM 80.1 °F 19.9 °F 11% 29.70 in 10.0 mi WSW 11.5 mph 16.1 mph N/A   Clear
12:53 PM 84.0 °F 14.0 °F 7% 29.65 in 10.0 mi SW 15.0 mph 25.3 mph N/A   Clear
1:53 PM 86.0 °F 12.0 °F 6% 29.60 in 10.0 mi SW 12.7 mph 21.9 mph N/A   Clear
2:53 PM 86.0 °F 14.0 °F 7% 29.58 in 10.0 mi WNW 10.4 mph 19.6 mph N/A   Clear
3:53 PM 87.1 °F 10.9 °F 6% 29.56 in 10.0 mi NW 11.5 mph 18.4 mph N/A   Clear
4:53 PM 87.1 °F 9.0 °F 5% 29.56 in 10.0 mi West 11.5 mph 18.4 mph N/A   Clear
5:53 PM 84.0 °F 9.0 °F 6% 29.57 in 10.0 mi WSW 15.0 mph - N/A   Clear
6:53 PM 73.0 °F 10.9 °F 9% 29.60 in 10.0 mi SSW 6.9 mph - N/A   Clear
7:53 PM 70.0 °F 10.9 °F 10% 29.62 in 10.0 mi SSW 11.5 mph - N/A   Clear
8:53 PM 64.9 °F 35.1 °F 33% 29.61 in 10.0 mi South 11.5 mph - N/A   Clear
9:53 PM 66.0 °F 27.0 °F 23% 29.65 in 10.0 mi NW 5.8 mph - N/A   Clear
10:53 PM 63.0 °F 28.0 °F 27% 29.66 in 10.0 mi East 3.5 mph - N/A   Clear
11:53 PM 60.1 °F 30.9 °F 33% 29.66 in 10.0 mi SE 5.8 mph - N/A   Clear